EW4699 Weather Reports


Display with metric or nautical units.
time (UTC)temp
F
wind
direction
speed
MPH
gust
MPH
rain 1hr
in
rain 24hr
in
rain mn
in
humidity
%
barometer
mb
20260502231503 43 49 0.0 2.0 0.00 0.09 0.00 92 1009.2
20260502230105 43 46 1.0 4.0 0.00 0.09 0.00 92 1009.2
20260502224650 43 332 0.0 0.0 0.00 0.09 0.00 92 1008.8
20260502223049 43 332 0.0 0.0 0.00 0.09 0.00 92 1008.7
20260502221649 43 332 0.0 0.0 0.00 0.09 0.00 92 1008.6
20260502220049 44 332 0.0 0.0 0.00 0.09 0.00 92 1008.7
20260502214649 44 332 0.0 0.0 0.00 0.09 0.09 92 1008.7
20260502213050 44 332 0.0 0.0 0.00 0.09 0.09 92 1008.7
20260502211650 45 332 0.0 0.0 0.00 0.09 0.09 91 1008.7
20260502210056 46 332 0.0 0.0 0.00 0.09 0.09 91 1008.6
20260502204650 46 332 0.0 0.0 0.00 0.09 0.09 91 1008.7
20260502203053 47 332 0.0 0.0 0.00 0.09 0.09 91 1008.6
20260502201651 47 332 0.0 0.0 0.00 0.09 0.09 91 1008.8
20260502200052 47 332 0.0 0.0 0.00 0.09 0.09 90 1008.7
20260502194649 48 332 0.0 0.0 0.00 0.09 0.09 90 1008.8
20260502193054 48 332 0.0 0.0 0.00 0.09 0.09 89 1008.5
20260502191650 48 332 0.0 0.0 0.00 0.09 0.09 89 1008.5
20260502190053 48 332 0.0 0.0 0.00 0.09 0.09 89 1008.6
20260502184650 48 332 0.0 0.0 0.00 0.09 0.09 89 1008.7
20260502183054 49 332 0.0 2.0 0.00 0.09 0.09 89 1008.6
20260502181649 49 236 0.0 3.0 0.00 0.09 0.09 88 1008.5
20260502163053 50 30 0.0 0.0 0.07 0.08 0.08 79 1009.4
20260502161652 50 330 0.0 0.0 0.06 0.06 0.06 75 1009.5
20260502151650 52 355 0.0 4.0 0.00 0.01 0.01 69 1009.2
20260502123059 60 184 2.0 9.0 0.00 0.00 0.00 39 1009.9
20260502121651 60 234 2.0 7.0 0.00 0.00 0.00 39 1010.0
20260502114650 59 215 4.0 8.0 0.00 0.00 0.00 39 1010.0
20260502113053 60 216 1.0 8.0 0.00 0.00 0.00 39 1010.0
20260502111651 60 216 4.0 12.0 0.00 0.00 0.00 38 1010.2
20260502110053 61 229 3.0 14.0 0.00 0.00 0.00 38 1010.2
20260502104650 62 261 5.0 13.0 0.00 0.00 0.00 37 1010.3
20260502103103 63 192 5.0 11.0 0.00 0.00 0.00 35 1010.1
20260502101651 65 225 2.0 12.0 0.00 0.00 0.00 34 1010.1
20260502100118 64 177 4.0 11.0 0.00 0.00 0.00 36 1010.1
20260502090110 61 161 3.0 11.0 0.00 0.00 0.00 39 1010.9
20260502070052 54 242 3.0 7.0 0.00 0.00 0.00 56 1012.1
20260502064651 53 186 1.0 7.0 0.00 0.00 0.00 60 1012.3
20260502063052 53 96 0.0 2.0 0.00 0.00 0.00 63 1012.6
20260502061654 50 30 0.0 2.0 0.00 0.00 0.00 71 1012.7
20260502060051 51 20 0.0 2.0 0.00 0.00 0.00 69 1012.9
20260502054652 48 18 0.0 0.0 0.00 0.00 0.00 74 1013.0
20260502053101 47 18 0.0 3.0 0.00 0.00 0.00 75 1013.0
20260502051652 46 219 0.0 3.0 0.00 0.00 0.00 77 1013.0
20260502050051 44 227 1.0 6.0 0.00 0.00 0.00 82 1013.0
20260502044652 43 232 3.0 8.0 0.00 0.00 0.00 83 1013.1
20260502043100 42 235 1.0 4.0 0.00 0.00 0.00 85 1013.2
20260502041653 41 244 2.0 7.0 0.00 0.00 0.00 86 1013.3
20260502040056 41 238 2.0 5.0 0.00 0.00 0.00 86 1013.4
20260502034651 41 248 3.0 6.0 0.00 0.00 0.00 86 1013.6
20260502033052 41 252 1.0 4.0 0.00 0.00 0.00 88 1013.7
20260502031653 39 209 1.0 4.0 0.00 0.00 0.00 89 1013.9
20260502030059 39 230 0.0 1.0 0.00 0.00 0.00 88 1014.1
20260502024652 39 230 0.0 0.0 0.00 0.00 0.00 88 1014.3
20260502023052 39 230 0.0 1.0 0.00 0.00 0.00 86 1014.6
20260502021651 40 230 0.0 0.0 0.00 0.00 0.00 85 1014.7
20260502020051 41 230 0.0 0.0 0.00 0.00 0.00 84 1014.7
20260502014652 42 230 0.0 0.0 0.00 0.00 0.00 84 1014.8
20260502013052 42 230 0.0 0.0 0.00 0.00 0.00 83 1015.0
20260502011654 42 230 0.0 0.0 0.00 0.00 0.00 82 1015.1
20260502010106 43 230 0.0 0.0 0.00 0.00 0.00 81 1015.2
20260502004652 44 230 0.0 0.0 0.00 0.00 0.00 80 1015.3
20260502003051 45 230 0.0 3.0 0.00 0.00 0.00 79 1015.4
20260502001653 44 221 0.0 3.0 0.00 0.00 0.00 80 1015.4
20260502000052 45 219 0.0 2.0 0.00 0.00 0.00 80 1015.5
20260501234652 45 212 0.0 1.0 0.00 0.00 0.00 80 1015.6
20260501233056 46 209 0.0 0.0 0.00 0.00 0.00 75 1015.6